Location: Atherton
(17.2661°S, 145.4859°E)
Time: 23:20:11
(UTC+10:00)

Vanguard 1 - Pass Details

Date: 25 June 2025
Orbit: 649 x 3822 km, 34.2° (Epoch: 17 July)

Event Time Altitude Azimuth Distance (km) Brightness Sun altitude
Rises 01:37:12 0° 232° (SW) 3,605 - -71.1°
Reaches altitude 10° 01:40:18 10° 223° (SW) 2,379 - -70.4°
Maximum altitude 01:45:01 36° 156° (SSE) 1,068 - -69.3°
Drops below altitude 10° 01:49:06 10° 88° (E) 2,053 - -68.4°
Sets 01:51:34 0° 79° (ENE) 3,034 - -67.8°
